Location: Cuguron
(43.0994°N, 0.5363°E)
Time: 20:56:17
(UTC+00:00)

Gbstr 26 Del rocket - Pass Details

Date: 15 May 2026
Orbit: 490 x 1215 km, 51.8° (Epoch: 7 June)

Event Time Altitude Azimuth Distance (km) Brightness Sun altitude
Rises 20:24:49 0° 299° (WNW) 3,317 8.7 -11.5°
Reaches altitude 10° 20:27:41 10° 291° (WNW) 2,251 7.2 -11.9°
Maximum altitude 20:32:15 33° 228° (SW) 1,075 4.3 -12.5°
Enters shadow 20:35:26 14° 168° (SSE) 1,659 4.8 -12.9°
